Location: Ostrava
(49.8330°N, 18.2830°E)
Time: 12:18:31
(UTC+01:00)

Explorer 7 - Visible Passes

Search period start: 22 December 2014 00:00
Search period end: 01 January 2015 00:00
Orbit: 490 x 701 km, 50.3° (Epoch: 21 December)

Date Brightness Start Highest point End Pass type
(mag) Time Alt. Az. Time Alt. Az. Time Alt. Az.
22 Dec 9.2 04:50:17 15° S 04:52:52 23° SE 04:56:28 10° E visible
22 Dec 7.4 06:28:39 10° WSW 06:33:17 65° SSE 06:37:38 10° ENE visible
23 Dec 8.5 05:00:01 24° S 05:01:55 33° SSE 05:06:00 10° E visible
23 Dec 7.1 06:37:50 10° WSW 06:42:31 81° SSE 06:46:54 10° E visible
24 Dec 10.2 03:32:51 11° ESE 03:32:51 11° ESE 03:33:20 10° ESE visible
24 Dec 7.9 05:09:28 34° SSW 05:11:00 47° SSE 05:15:20 10° E visible
24 Dec 7.1 06:47:04 10° W 06:51:46 88° N 06:56:08 10° E visible
25 Dec 9.9 03:42:06 15° ESE 03:42:06 15° ESE 03:43:18 10° E visible
25 Dec 7.4 05:18:43 42° SW 05:20:07 63° SSE 05:24:35 10° ENE visible
25 Dec 7.0 06:56:19 10° W 07:01:00 83° N 07:05:21 10° E visible
26 Dec 9.6 03:51:12 19° E 03:51:12 19° E 03:52:48 10° E visible
26 Dec 7.1 05:27:48 44° WSW 05:29:15 78° SSE 05:33:45 10° E visible
26 Dec 7.1 07:05:32 10° W 07:10:12 85° N 07:14:33 10° E visible
27 Dec 9.3 04:00:10 23° E 04:00:10 23° E 04:02:05 10° E visible
27 Dec 7.0 05:36:45 41° W 05:38:24 90° SSW 05:42:55 10° E visible
28 Dec 9.0 04:09:02 28° E 04:09:02 28° E 04:11:15 10° ENE visible
28 Dec 7.0 05:45:37 36° W 05:47:33 84° N 05:52:03 10° E visible
29 Dec 8.7 04:17:49 33° E 04:17:49 33° E 04:20:21 10° ENE visible
29 Dec 7.0 05:54:24 30° W 05:56:41 84° N 06:01:09 10° E visible
30 Dec 8.4 04:26:32 39° E 04:26:32 39° E 04:29:25 10° E visible
30 Dec 7.0 06:03:07 26° W 06:05:47 90° SSW 06:10:14 10° E visible
31 Dec 8.0 04:35:12 47° E 04:35:12 47° E 04:38:28 10° E visible
31 Dec 7.1 06:11:47 22° W 06:14:49 78° SSW 06:19:14 10° ESE visible
